Location: Corcelles
(46.1547°N, 4.7234°E)
Time: 08:49:38
(UTC+00:00)

Cosmos 1703 Rocket - Pass Details

Date: 14 July 2020
Orbit: 605 x 634 km, 82.5° (Epoch: 14 August)

Event Time Altitude Azimuth Distance (km) Brightness Sun altitude
Rises 00:29:54 0° 356° (N) 2,934 8.4 -21.5°
Reaches altitude 10° 00:32:14 10° 2° (N) 2,018 7.3 -21.4°
Maximum altitude 00:36:34 47° 77° (ENE) 831 4.3 -21.3°
Enters shadow 00:38:06 33° 128° (SE) 1,056 4.5 -21.2°
